Portland Hillsboro, OR

7:48 PM PDT on June 27, 2017 (GMT -0700)
Portland-Hillsboro

Weather History for KHIO - July, 2013

Change the Weather History Date:

Friday, July 26, 2013

  Actual Average Record
Temperature  
Mean Temperature 69 °F 67 °F  
Max Temperature 90 °F 82 °F 103 °F (1939)
Min Temperature 47 °F 52 °F 37 °F (1930)
Degree Days  
Heating Degree Days 0 1  
Month to date heating degree days 18 49  
Since 1 July heating degree days 18 49  
Cooling Degree Days 4 3  
Month to date cooling degree days 83 60  
Year to date cooling degree days 128 86  
Growing Degree Days 18 (Base 50)    
Moisture  
Dew Point 46 °F    
Average Humidity 55    
Maximum Humidity 86    
Minimum Humidity 24    
Precipitation  
Precipitation 0.00 in 0.01 in 0.38 in (1947)
Month to date precipitation T 0.48  
Year to date precipitation 12.77 21.37  
Snow  
Snow 0.00 in - - ()
Month to date snowfall 0.0  
Since 1 June snowfall 0.0  
Since 1 July snowfall 0.0  
Snow Depth 0.00 in    
Sea Level Pressure  
Sea Level Pressure 30.09 in    
Wind  
Wind Speed 7 mph (NW)    
Max Wind Speed 21 mph    
Max Gust Speed 25 mph    
Visibility 10 miles    
Events      
T = Trace of Precipitation, MM = Missing Value Source: NWS Daily Summary

Daily Weather History Graph

Daily Weather History Graph

Search for Another Location

Airport or City:

Trip Planner

Search our weather history database for the weather conditions in past years. The results will help you decide how hot, cold, wet, or windy it might be!

Date:

Astronomy

Jul. 26, 2013 Rise Set
Actual Time 5:49 AM PDT 8:46 PM PDT
Civil Twilight 5:14 AM PDT 9:21 PM PDT
Nautical Twilight 4:29 AM PDT 10:06 PM PDT
Astronomical Twilight 3:35 AM PDT 10:59 PM PDT
Moon 10:44 PM PDT (7/26) 10:48 AM PDT (7/26)
Length of Visible Light 16h 07m
Length of Day
14h 57m
Waning Gibbous, 79% of the Moon is Illuminated
Jul 26
Waning Gibbous
Jul 29
Last Quarter
Aug 6
New
Aug 14
First Quarter
Aug 20
Full

Hourly Weather History & Observations

Time (PDT) Temp. Dew Point Humidity Pressure Visibility Wind Dir Wind Speed Gust Speed Precip Events Conditions
12:53 AM 62.1 °F 45.0 °F 53% 30.04 in 10.0 mi WNW 3.5 mph - N/A   Clear
1:53 AM 55.9 °F 45.0 °F 67% 30.05 in 10.0 mi Calm Calm - N/A   Clear
2:53 AM 54.0 °F 45.0 °F 72% 30.06 in 10.0 mi Calm Calm - N/A   Clear
3:53 AM 53.1 °F 46.9 °F 80% 30.06 in 10.0 mi Calm Calm - N/A   Clear
4:53 AM 51.1 °F 45.0 °F 80% 30.08 in 10.0 mi Calm Calm - N/A   Clear
5:53 AM 48.0 °F 44.1 °F 86% 30.10 in 10.0 mi Calm Calm - N/A   Clear
6:53 AM 52.0 °F 46.9 °F 83% 30.12 in 10.0 mi Calm Calm - N/A   Clear
7:53 AM 61.0 °F 48.0 °F 62% 30.13 in 10.0 mi Calm Calm - N/A   Clear
8:53 AM 66.9 °F 50.0 °F 54% 30.12 in 10.0 mi NNE 3.5 mph - N/A   Clear
9:53 AM 71.1 °F 51.1 °F 49% 30.12 in 10.0 mi Variable 3.5 mph - N/A   Clear
10:53 AM 75.9 °F 52.0 °F 43% 30.11 in 10.0 mi Variable 3.5 mph - N/A   Clear
11:53 AM 82.0 °F 51.1 °F 34% 30.10 in 10.0 mi Variable 4.6 mph - N/A   Clear
12:53 PM 84.9 °F 50.0 °F 30% 30.09 in 10.0 mi North 8.1 mph - N/A   Clear
1:53 PM 89.1 °F 48.0 °F 24% 30.08 in 10.0 mi NW 16.1 mph - N/A   Clear
2:53 PM 89.1 °F 48.0 °F 24% 30.08 in 7.0 mi NW 9.2 mph - N/A   Clear
3:44 PM 89.1 °F 48.9 °F 25% 30.08 in 10.0 mi WNW 15.0 mph - N/A   Partly Cloudy
3:53 PM 89.1 °F 50.0 °F 26% 30.07 in 10.0 mi NNW 15.0 mph - N/A   Clear
4:53 PM 87.1 °F 48.0 °F 26% 30.07 in 10.0 mi NNW 17.3 mph - N/A   Clear
5:53 PM 82.9 °F 48.0 °F 29% 30.07 in 10.0 mi NNW 15.0 mph - N/A   Clear
6:53 PM 80.1 °F 42.1 °F 26% 30.08 in 10.0 mi NNW 13.8 mph - N/A   Clear
7:53 PM 75.0 °F 39.0 °F 27% 30.09 in 10.0 mi NNW 12.7 mph - N/A   Clear
8:53 PM 68.0 °F 42.1 °F 39% 30.10 in 10.0 mi NW 9.2 mph - N/A   Clear
9:53 PM 64.0 °F 42.1 °F 45% 30.13 in 10.0 mi NNW 5.8 mph - N/A   Clear
10:53 PM 62.1 °F 43.0 °F 50% 30.15 in 10.0 mi West 4.6 mph - N/A   Clear
11:53 PM 61.0 °F 43.0 °F 52% 30.15 in 10.0 mi WNW 9.2 mph - N/A   Clear